Location: Caltech
(34.1382°N, 118.1253°W)
Time: 00:57:20
(UTC-07:00)

Cosmos 1939 Rocket - Visible Passes

Search period start: 25 August 2016 00:00
Search period end: 04 September 2016 00:00
Orbit: 533 x 588 km, 97.6° (Epoch: 24 August)

Date Brightness Start Highest point End Pass type
(mag) Time Alt. Az. Time Alt. Az. Time Alt. Az.
25 Aug 3.1 21:03:34 47° E 21:03:55 49° ENE 21:07:57 10° N visible
26 Aug 3.1 21:02:42 47° E 21:02:57 48° ENE 21:06:58 10° N visible
26 Aug 6.0 22:38:39 10° W 22:38:39 10° W 22:38:54 10° W visible
27 Aug 3.2 21:01:50 46° E 21:01:59 46° ENE 21:05:59 10° N visible
27 Aug 6.0 22:37:46 10° W 22:37:46 10° W 22:38:10 10° WNW visible
28 Aug 3.2 21:00:58 45° ENE 21:01:02 45° ENE 21:05:00 10° N visible
28 Aug 6.0 22:36:54 11° W 22:36:54 11° W 22:37:24 10° WNW visible
29 Aug 3.3 21:00:06 44° ENE 21:00:06 44° ENE 21:04:01 10° N visible
29 Aug 6.0 22:36:02 11° W 22:36:02 11° W 22:36:35 10° WNW visible
30 Aug 3.4 20:59:14 43° ENE 20:59:14 43° ENE 21:03:02 10° N visible
30 Aug 6.0 22:35:10 11° WNW 22:35:10 11° WNW 22:35:45 10° WNW visible
31 Aug 3.4 20:58:22 41° ENE 20:58:22 41° ENE 21:02:02 10° N visible
31 Aug 6.0 22:34:19 11° WNW 22:34:19 11° WNW 22:34:54 10° WNW visible
01 Sep 3.5 20:57:30 40° ENE 20:57:30 40° ENE 21:01:03 10° N visible
01 Sep 6.0 22:33:27 11° WNW 22:33:27 11° WNW 22:34:02 10° WNW visible
02 Sep 3.6 20:56:38 38° NE 20:56:38 38° NE 21:00:04 10° N visible
02 Sep 6.0 22:32:35 11° WNW 22:32:35 11° WNW 22:33:09 10° WNW visible
03 Sep 3.7 20:55:47 36° NE 20:55:47 36° NE 20:59:04 10° N visible
03 Sep 6.1 22:31:43 11° WNW 22:31:43 11° WNW 22:32:17 10° WNW visible
